Simultaneous Nadir Overpasses (SNOs) Predictions

Prediction of SNOs between FY3D and METOP-A Satellite Orbit:

Table of predicted SNOs for the next 14.0 days since TLE Epoch: 12/14/2019
Index Date (FY3D) Time (FY3D) Lat,Lon (FY3D) SZA (FY3D ) Date (METOP-A) Time (METOP-A) Lat,Lon (METOP-A) SZA (METOP-A ) Distance(km) Time Diff (sec)
1 12/20/2019 16:06:48 75.54, -75.76 99.25 12/20/2019 16:07:56 75.47, -73.33 99.05 67.92 68
2 12/20/2019 16:57:30 -75.46, 91.81 80.85 12/20/2019 16:58:39 -75.41, 93.84 81.00 57.02 69
3 12/20/2019 17:48:11 75.25,-100.25 98.92 12/20/2019 17:49:23 75.21, -99.43 98.83 23.53 72
4 12/20/2019 18:38:53 -75.17, 67.31 81.17 12/20/2019 18:40:07 -75.11, 67.61 81.26 11.01 74
5 12/20/2019 19:29:37 75.10,-125.18 98.76 12/20/2019 19:30:47 75.09,-125.10 98.73 2.46 70
6 12/20/2019 20:20:20 -75.07, 42.23 81.28 12/20/2019 20:21:29 -75.09, 42.22 81.28 2.41 69
7 12/20/2019 21:11:06 75.09,-150.54 98.75 12/20/2019 21:12:09 75.07,-150.50 98.71 2.76 63
8 12/20/2019 22:01:49 -75.06, 16.87 81.29 12/20/2019 22:02:51 -75.07, 16.82 81.29 1.64 62
9 12/20/2019 22:52:35 75.09,-175.89 98.75 12/20/2019 22:53:31 75.05,-175.89 98.70 4.05 56
10 12/20/2019 23:43:18 -75.06, -8.48 81.29 12/20/2019 23:44:13 -75.05, -8.57 81.31 2.58 55
11 12/21/2019 00:34:03 75.08, 158.75 98.74 12/21/2019 00:34:51 75.08, 158.85 98.72 2.72 48
12 12/21/2019 01:24:46 -75.05, -33.84 81.30 12/21/2019 01:25:33 -75.08, -33.83 81.28 3.21 47
13 12/21/2019 02:15:32 75.08, 133.40 98.74 12/21/2019 02:16:13 75.06, 133.45 98.71 2.34 41
14 12/21/2019 03:06:15 -75.05, -59.19 81.30 12/21/2019 03:06:55 -75.06, -59.22 81.30 1.91 40
15 12/21/2019 03:57:01 75.07, 108.04 98.73 12/21/2019 03:57:35 75.04, 108.06 98.69 3.30 34
16 12/21/2019 04:47:44 -75.04, -84.55 81.31 12/21/2019 04:48:17 -75.04, -84.62 81.31 2.01 33
17 12/21/2019 05:38:30 75.07, 82.69 98.73 12/21/2019 05:38:56 75.07, 82.80 98.72 3.22 26
18 12/21/2019 06:29:13 -75.04,-109.90 81.31 12/21/2019 06:29:39 -75.02,-110.01 81.33 3.41 26
19 12/21/2019 07:19:59 75.06, 57.33 98.72 12/21/2019 07:20:18 75.05, 57.40 98.70 2.24 19
20 12/21/2019 08:10:42 -75.03,-135.26 81.32 12/21/2019 08:11:00 -75.05,-135.27 81.30 2.52 18
21 12/21/2019 09:01:28 75.06, 31.98 98.72 12/21/2019 09:01:40 75.03, 32.01 98.69 2.65 12
22 12/21/2019 09:52:11 -75.02,-160.61 81.32 12/21/2019 09:52:22 -75.03,-160.67 81.32 1.79 11
23 12/21/2019 10:42:57 75.05, 6.62 98.71 12/21/2019 10:43:01 75.06, 6.75 98.71 3.87 4
24 12/21/2019 11:33:40 -75.02, 174.03 81.33 12/21/2019 11:33:44 -75.01, 173.94 81.33 2.68 4
25 12/21/2019 12:24:26 75.05, -18.73 98.70 12/21/2019 12:24:23 75.04, -18.65 98.70 2.50 3
26 12/21/2019 13:15:09 -75.01, 148.67 81.34 12/21/2019 13:15:05 -75.04, 148.68 81.31 3.29 4
27 12/21/2019 14:05:55 75.04, -44.09 98.70 12/21/2019 14:05:45 75.02, -44.04 98.68 2.19 10
28 12/21/2019 14:56:38 -75.01, 123.32 81.34 12/21/2019 14:56:27 -75.02, 123.28 81.32 2.03 11
29 12/21/2019 15:47:24 75.03, -69.44 98.69 12/21/2019 15:47:07 75.01, -69.44 98.67 3.26 17
30 12/21/2019 16:38:07 -75.00, 97.96 81.35 12/21/2019 16:37:49 -75.01, 97.89 81.34 2.13 18
31 12/21/2019 17:28:53 75.03, -94.80 98.69 12/21/2019 17:28:28 75.03, -94.70 98.69 3.02 25
32 12/21/2019 18:19:36 -75.00, 72.61 81.35 12/21/2019 18:19:11 -74.99, 72.50 81.35 3.47 25
33 12/21/2019 19:10:22 75.02,-120.15 98.68 12/21/2019 19:09:50 75.01,-120.09 98.68 2.05 32
34 12/21/2019 20:01:05 -74.99, 47.25 81.36 12/21/2019 20:00:32 -75.02, 47.24 81.33 2.62 33
35 12/21/2019 20:51:51 75.02,-145.51 98.68 12/21/2019 20:51:12 75.00,-145.49 98.66 2.57 39
36 12/21/2019 21:42:34 -74.99, 21.90 81.36 12/21/2019 21:41:54 -75.00, 21.84 81.34 1.91 40
37 12/21/2019 22:33:20 75.01,-170.87 98.67 12/21/2019 22:32:33 75.02,-170.75 98.69 3.70 47
38 12/21/2019 23:24:03 -74.98, -3.46 81.37 12/21/2019 23:23:16 -74.98, -3.55 81.36 2.75 47
39 12/22/2019 00:14:49 75.01, 163.78 98.67 12/22/2019 00:13:55 75.01, 163.86 98.67 2.31 54
40 12/22/2019 01:05:32 -74.98, -28.81 81.37 12/22/2019 01:04:37 -75.01, -28.81 81.33 3.37 55
41 12/22/2019 01:56:18 75.00, 138.42 98.66 12/22/2019 01:55:17 74.99, 138.46 98.66 2.06 61
42 12/22/2019 02:47:01 -74.97, -54.17 81.38 12/22/2019 02:45:59 -74.99, -54.21 81.35 2.14 62
43 12/22/2019 03:37:47 75.00, 113.07 98.65 12/22/2019 03:36:39 74.97, 113.07 98.64 3.24 68
44 12/22/2019 04:28:30 -74.96, -79.53 81.39 12/22/2019 04:27:21 -74.97, -79.60 81.36 2.22 69
45 12/22/2019 05:19:15 74.94, 87.85 98.59 12/22/2019 05:18:01 74.95, 87.68 98.62 5.05 74
46 12/22/2019 06:09:58 -74.91,-104.75 81.44 12/22/2019 06:08:44 -74.90,-105.13 81.42 11.15 74
47 12/22/2019 07:00:39 74.70, 63.16 98.32 12/22/2019 06:59:28 74.68, 61.62 98.40 45.20 71
48 12/22/2019 07:51:21 -74.62,-129.31 81.77 12/22/2019 07:50:11 -74.64,-131.17 81.64 55.03 70
49 12/22/2019 08:42:01 74.35, 38.71 97.94 12/22/2019 08:40:56 74.37, 35.47 98.14 97.12 65




NCC Satellite Simultaneous Nadir Overpasses (SNOs) Prediction Service
